Zurück zum Katalog

STARLINK-5850

AktivKommunikationVLEO
NORAD 57049·PAYLOAD·🇺🇸 United States

Gestartet Jun 22, 2023 von Vandenberg Space Force Base

Loading…

Nächste Überflüge (nächste 24 Stunden)

TLE

AktuellSource: CelesTrak SupGP

Epoche: Sep 15, 2026, 02:36 UTC

1 57049C 23088B   26258.10881944  .00056223  00000+0  20372-2 0  2585
2 57049  43.0024 121.2447 0001959 265.6061 249.8262 15.27536311    19

Verfolge STARLINK-5850 in Echtzeit mit AllMySat

Download on the App Store